Time,TemperatureF,DewpointF,PressureIn,WindDirection,WindDirectionDegrees,WindSpeedMPH,WindSpeedGustMPH,Humidity,HourlyPrecipIn,Conditions,Clouds,dailyrainin,SoftwareType,DateUTC
2013-09-23 00:01:00,45.5,36.7,30.06,NE,45,0.0,0.0,71,0.00,,-RA,0.00,VWS V14.01,2013-09-23 04:01:00,
2013-09-23 00:06:00,45.3,36.5,30.06,NE,45,0.0,0.0,71,0.00,,-RA,0.00,VWS V14.01,2013-09-23 04:06:00,
2013-09-23 00:11:00,45.1,36.7,30.06,NE,45,0.0,0.0,72,0.00,,-RA,0.00,VWS V14.01,2013-09-23 04:11:00,
2013-09-23 00:16:00,45.0,36.5,30.06,WNW,292,0.0,0.0,72,0.00,,-RA,0.00,VWS V14.01,2013-09-23 04:16:00,
2013-09-23 00:21:00,45.0,36.8,30.06,WNW,292,0.0,0.0,73,0.00,,-RA,0.00,VWS V14.01,2013-09-23 04:21:00,
2013-09-23 00:26:00,44.8,36.7,30.06,WNW,292,0.0,0.0,73,0.00,,-RA,0.00,VWS V14.01,2013-09-23 04:26:00,
2013-09-23 00:31:00,44.6,36.5,30.06,WNW,292,0.0,0.0,73,0.00,,-RA,0.00,VWS V14.01,2013-09-23 04:31:00,
2013-09-23 00:36:00,44.6,36.5,30.06,WNW,292,0.0,0.0,73,0.00,,-RA,0.00,VWS V14.01,2013-09-23 04:36:00,
2013-09-23 00:41:00,44.2,36.5,30.06,WNW,292,0.0,0.0,74,0.00,,-RA,0.00,VWS V14.01,2013-09-23 04:41:00,
2013-09-23 00:46:00,44.2,36.5,30.06,WNW,292,0.0,0.0,74,0.00,,-RA,0.00,VWS V14.01,2013-09-23 04:46:00,
2013-09-23 00:51:00,44.1,36.7,30.06,WNW,292,0.0,0.0,75,0.00,,-RA,0.00,VWS V14.01,2013-09-23 04:51:00,
2013-09-23 00:56:00,44.1,36.7,30.06,WNW,292,0.0,0.0,75,0.00,,-RA,0.00,VWS V14.01,2013-09-23 04:56:00,
2013-09-23 01:01:00,44.1,36.7,30.06,WNW,292,0.0,0.0,75,0.00,,-RA,0.00,VWS V14.01,2013-09-23 05:01:00,
2013-09-23 01:06:00,43.9,36.5,30.06,NNW,338,0.0,0.0,75,0.00,,-RA,0.00,VWS V14.01,2013-09-23 05:06:00,
2013-09-23 01:11:00,43.9,36.8,30.06,NNW,338,0.0,0.0,76,0.00,,-RA,0.00,VWS V14.01,2013-09-23 05:11:00,
2013-09-23 01:16:00,43.9,36.8,30.06,NNW,338,0.0,0.0,76,0.00,,-RA,0.00,VWS V14.01,2013-09-23 05:16:00,
2013-09-23 01:21:00,43.7,36.6,30.06,WNW,292,0.0,0.0,76,0.00,,-RA,0.00,VWS V14.01,2013-09-23 05:21:00,
2013-09-23 01:26:00,43.7,36.6,30.06,NW,315,0.0,0.0,76,0.00,,-RA,0.00,VWS V14.01,2013-09-23 05:26:00,
2013-09-23 01:31:00,43.7,36.6,30.06,WNW,292,0.0,0.0,76,0.00,,-RA,0.00,VWS V14.01,2013-09-23 05:31:00,
2013-09-23 01:36:00,43.7,37.0,30.06,WNW,292,0.0,0.0,77,0.00,,-RA,0.00,VWS V14.01,2013-09-23 05:36:00,
2013-09-23 01:41:00,43.5,36.8,30.06,NW,315,0.0,0.0,77,0.00,,-RA,0.00,VWS V14.01,2013-09-23 05:41:00,
2013-09-23 01:46:00,43.5,36.8,30.06,NW,315,0.0,0.0,77,0.00,,-RA,0.00,VWS V14.01,2013-09-23 05:46:00,
2013-09-23 01:51:00,43.5,36.8,30.06,NW,315,0.0,0.0,77,0.00,,-RA,0.00,VWS V14.01,2013-09-23 05:51:00,
2013-09-23 01:56:00,43.5,36.8,30.06,NW,315,0.0,0.0,77,0.00,,-RA,0.00,VWS V14.01,2013-09-23 05:56:00,
2013-09-23 02:01:00,43.5,36.8,30.06,NW,315,0.0,0.0,77,0.00,,-RA,0.00,VWS V14.01,2013-09-23 06:01:00,
2013-09-23 02:06:00,43.5,36.8,30.06,NW,315,0.0,0.0,77,0.00,,-RA,0.00,VWS V14.01,2013-09-23 06:06:00,
2013-09-23 02:11:00,43.3,37.0,30.06,WNW,292,0.0,0.0,78,0.00,,-RA,0.00,VWS V14.01,2013-09-23 06:11:00,
2013-09-23 02:16:00,43.2,36.8,30.06,WNW,292,0.0,0.0,78,0.00,,-RA,0.00,VWS V14.01,2013-09-23 06:16:00,
2013-09-23 02:21:00,43.0,36.6,30.06,WNW,292,0.0,0.0,78,0.00,,-RA,0.00,VWS V14.01,2013-09-23 06:21:00,
2013-09-23 02:26:00,43.0,36.6,30.06,WNW,292,0.0,0.0,78,0.00,,-RA,0.00,VWS V14.01,2013-09-23 06:26:00,
2013-09-23 02:31:00,43.0,36.6,30.06,WNW,292,0.0,0.0,78,0.00,,-RA,0.00,VWS V14.01,2013-09-23 06:31:00,
2013-09-23 02:36:00,42.8,36.4,30.06,NNW,338,0.0,0.0,78,0.00,,-RA,0.00,VWS V14.01,2013-09-23 06:36:00,
2013-09-23 02:41:00,42.8,36.4,30.06,NW,315,0.0,0.0,78,0.00,,-RA,0.00,VWS V14.01,2013-09-23 06:41:00,
2013-09-23 02:46:00,42.6,36.6,30.09,NW,315,0.0,0.0,79,0.00,,-RA,0.00,VWS V14.01,2013-09-23 06:46:00,
2013-09-23 02:51:00,42.6,36.6,30.09,WNW,292,0.0,0.0,79,0.00,,-RA,0.00,VWS V14.01,2013-09-23 06:51:00,
2013-09-23 02:56:00,42.6,36.6,30.09,WNW,292,0.0,0.0,79,0.00,,-RA,0.00,VWS V14.01,2013-09-23 06:56:00,
2013-09-23 03:01:00,42.4,36.4,30.06,WNW,292,0.0,0.0,79,0.00,,-RA,0.00,VWS V14.01,2013-09-23 07:01:00,
2013-09-23 03:06:00,42.4,36.7,30.06,WNW,292,0.0,0.0,80,0.00,,-RA,0.00,VWS V14.01,2013-09-23 07:06:00,
2013-09-23 03:11:00,42.4,36.7,30.06,WNW,292,0.0,0.0,80,0.00,,-RA,0.00,VWS V14.01,2013-09-23 07:11:00,
2013-09-23 03:16:00,42.4,36.7,30.09,WNW,292,0.0,0.0,80,0.00,,-RA,0.00,VWS V14.01,2013-09-23 07:16:00,
2013-09-23 03:21:00,42.3,36.5,30.09,WNW,292,0.0,0.0,80,0.00,,-RA,0.00,VWS V14.01,2013-09-23 07:21:00,
2013-09-23 03:26:00,42.3,36.5,30.09,WNW,292,0.0,0.0,80,0.00,,-RA,0.00,VWS V14.01,2013-09-23 07:26:00,
2013-09-23 03:31:00,42.1,36.4,30.09,WNW,292,0.0,0.0,80,0.00,,-RA,0.00,VWS V14.01,2013-09-23 07:31:00,
2013-09-23 03:36:00,42.1,36.4,30.09,WNW,292,0.0,0.0,80,0.00,,-RA,0.00,VWS V14.01,2013-09-23 07:36:00,
2013-09-23 03:41:00,42.1,36.4,30.09,WNW,292,0.0,0.0,80,0.00,,-RA,0.00,VWS V14.01,2013-09-23 07:41:00,
2013-09-23 03:46:00,41.9,36.5,30.09,WNW,292,0.0,0.0,81,0.00,,-RA,0.00,VWS V14.01,2013-09-23 07:46:00,
2013-09-23 03:51:00,41.9,36.5,30.09,NE,45,0.0,0.0,81,0.00,,-RA,0.00,VWS V14.01,2013-09-23 07:51:00,
2013-09-23 03:56:00,41.9,36.5,30.09,NNW,338,0.0,0.0,81,0.00,,-RA,0.00,VWS V14.01,2013-09-23 07:56:00,
2013-09-23 04:01:00,41.7,36.3,30.09,NNW,338,0.0,0.0,81,0.00,,-RA,0.00,VWS V14.01,2013-09-23 08:01:00,
2013-09-23 04:06:00,41.7,36.3,30.09,NNW,338,0.0,0.0,81,0.00,,-RA,0.00,VWS V14.01,2013-09-23 08:06:00,
2013-09-23 04:11:00,41.7,36.3,30.09,NW,315,0.0,0.0,81,0.00,,-RA,0.00,VWS V14.01,2013-09-23 08:11:00,
2013-09-23 04:16:00,41.7,36.3,30.09,WNW,292,0.0,0.0,81,0.00,,-RA,0.00,VWS V14.01,2013-09-23 08:16:00,
2013-09-23 04:21:00,41.5,36.5,30.09,WNW,292,0.0,0.0,82,0.00,,-RA,0.00,VWS V14.01,2013-09-23 08:21:00,
2013-09-23 04:26:00,41.7,36.6,30.09,WNW,292,0.0,0.0,82,0.00,,-RA,0.00,VWS V14.01,2013-09-23 08:26:00,
2013-09-23 04:31:00,41.7,36.6,30.09,North,0,0.0,0.0,82,0.00,,-RA,0.00,VWS V14.01,2013-09-23 08:31:00,
2013-09-23 04:36:00,41.7,36.6,30.09,WNW,292,0.0,0.0,82,0.00,,-RA,0.00,VWS V14.01,2013-09-23 08:36:00,
2013-09-23 04:41:00,41.9,37.1,30.09,NNW,338,0.0,0.0,83,0.00,,-RA,0.00,VWS V14.01,2013-09-23 08:41:00,
2013-09-23 04:46:00,42.3,37.5,30.09,NNE,22,0.0,0.0,83,0.00,,-RA,0.00,VWS V14.01,2013-09-23 08:46:00,
2013-09-23 04:51:00,42.3,37.5,30.09,WNW,292,1.6,1.6,83,0.00,,-RA,0.00,VWS V14.01,2013-09-23 08:51:00,
2013-09-23 04:56:00,42.3,37.5,30.09,NNW,338,0.0,0.0,83,0.00,,-RA,0.00,VWS V14.01,2013-09-23 08:56:00,
2013-09-23 05:01:00,42.3,37.5,30.09,North,0,1.3,1.3,83,0.00,,-RA,0.00,VWS V14.01,2013-09-23 09:01:00,
2013-09-23 05:06:00,42.3,37.5,30.09,WSW,248,0.0,0.0,83,0.00,,-RA,0.00,VWS V14.01,2013-09-23 09:06:00,
2013-09-23 05:11:00,42.4,38.0,30.09,NW,315,0.0,0.0,84,0.00,,-RA,0.00,VWS V14.01,2013-09-23 09:11:00,
2013-09-23 05:16:00,42.4,38.0,30.09,North,0,0.0,0.0,84,0.00,,-RA,0.00,VWS V14.01,2013-09-23 09:16:00,
2013-09-23 05:21:00,42.4,38.0,30.09,NE,45,3.1,3.1,84,0.00,,-RA,0.00,VWS V14.01,2013-09-23 09:21:00,
2013-09-23 05:26:00,42.4,38.0,30.09,WSW,248,0.0,0.0,84,0.00,,-RA,0.00,VWS V14.01,2013-09-23 09:26:00,
2013-09-23 05:31:00,42.6,38.1,30.09,ENE,68,0.0,0.0,84,0.00,,-RA,0.00,VWS V14.01,2013-09-23 09:31:00,
2013-09-23 05:36:00,42.6,38.4,30.09,North,0,0.0,0.0,85,0.00,,-RA,0.00,VWS V14.01,2013-09-23 09:36:00,
2013-09-23 05:41:00,42.6,38.4,30.09,NNE,22,0.0,0.0,85,0.00,,-RA,0.00,VWS V14.01,2013-09-23 09:41:00,
2013-09-23 05:46:00,42.8,38.3,30.09,ENE,68,0.0,0.0,84,0.00,,-RA,0.00,VWS V14.01,2013-09-23 09:46:00,
2013-09-23 05:51:00,42.8,38.3,30.09,NW,315,0.0,0.0,84,0.00,,-RA,0.00,VWS V14.01,2013-09-23 09:51:00,
2013-09-23 05:56:00,42.6,38.4,30.09,North,0,0.0,0.0,85,0.00,,-RA,0.00,VWS V14.01,2013-09-23 09:56:00,
2013-09-23 06:01:00,42.8,38.3,30.09,NNE,22,0.0,0.0,84,0.00,,-RA,0.00,VWS V14.01,2013-09-23 10:01:00,
2013-09-23 06:06:00,42.6,38.4,30.09,SSE,158,0.0,0.0,85,0.00,,-RA,0.00,VWS V14.01,2013-09-23 10:06:00,
2013-09-23 06:11:00,42.6,38.4,30.09,SSW,202,0.0,0.0,85,0.00,,-RA,0.00,VWS V14.01,2013-09-23 10:11:00,
2013-09-23 06:16:00,42.6,38.4,30.09,WNW,292,0.0,0.0,85,0.00,,-RA,0.00,VWS V14.01,2013-09-23 10:16:00,
2013-09-23 06:21:00,42.8,38.3,30.09,NW,315,0.0,0.0,84,0.00,,-RA,0.00,VWS V14.01,2013-09-23 10:21:00,
2013-09-23 06:26:00,42.6,38.4,30.09,West,270,1.1,1.1,85,0.00,,-RA,0.00,VWS V14.01,2013-09-23 10:26:00,
2013-09-23 06:31:00,42.6,38.4,30.09,SSE,158,0.0,0.0,85,0.00,,-RA,0.00,VWS V14.01,2013-09-23 10:31:00,
2013-09-23 06:36:00,42.6,38.4,30.09,North,0,0.0,0.0,85,0.00,,-RA,0.00,VWS V14.01,2013-09-23 10:36:00,
2013-09-23 06:41:00,42.4,38.3,30.09,SSW,202,3.4,3.4,85,0.00,,-RA,0.00,VWS V14.01,2013-09-23 10:41:00,
2013-09-23 06:46:00,42.4,38.3,30.09,North,0,0.0,0.0,85,0.00,,-RA,0.00,VWS V14.01,2013-09-23 10:46:00,
2013-09-23 06:51:00,42.6,38.4,30.09,North,0,0.0,0.0,85,0.00,,-RA,0.00,VWS V14.01,2013-09-23 10:51:00,
2013-09-23 06:56:00,42.6,38.4,30.09,NNE,22,0.0,0.0,85,0.00,,-RA,0.00,VWS V14.01,2013-09-23 10:56:00,
2013-09-23 07:01:00,42.6,38.4,30.12,North,0,0.9,0.9,85,0.00,,-RA,0.00,VWS V14.01,2013-09-23 11:01:00,
2013-09-23 07:06:00,42.6,38.4,30.12,NW,315,0.0,0.0,85,0.00,,-RA,0.00,VWS V14.01,2013-09-23 11:06:00,
2013-09-23 07:11:00,42.6,38.4,30.12,ENE,68,0.0,0.0,85,0.00,,-RA,0.00,VWS V14.01,2013-09-23 11:11:00,
2013-09-23 07:16:00,42.4,38.3,30.12,NW,315,0.0,0.0,85,0.00,,-RA,0.00,VWS V14.01,2013-09-23 11:16:00,
2013-09-23 07:21:00,42.4,38.0,30.12,North,0,0.0,0.0,84,0.00,,-RA,0.00,VWS V14.01,2013-09-23 11:21:00,
2013-09-23 07:26:00,42.3,38.1,30.12,NNW,338,0.0,0.0,85,0.00,,-RA,0.00,VWS V14.01,2013-09-23 11:26:00,
2013-09-23 07:31:00,42.3,38.1,30.12,WNW,292,0.0,0.0,85,0.00,,-RA,0.00,VWS V14.01,2013-09-23 11:31:00,
2013-09-23 07:36:00,42.3,38.1,30.12,North,0,0.0,0.0,85,0.00,,-RA,0.00,VWS V14.01,2013-09-23 11:36:00,
2013-09-23 07:41:00,42.4,38.3,30.12,North,0,0.0,0.0,85,0.00,,-RA,0.00,VWS V14.01,2013-09-23 11:41:00,
2013-09-23 07:46:00,42.4,38.3,30.12,NW,315,0.0,0.0,85,0.00,,-RA,0.00,VWS V14.01,2013-09-23 11:46:00,
2013-09-23 07:51:00,42.6,38.4,30.12,NNE,22,0.0,0.0,85,0.00,,-RA,0.00,VWS V14.01,2013-09-23 11:51:00,
2013-09-23 07:56:00,42.8,38.6,30.12,WNW,292,1.3,1.3,85,0.00,,-RA,0.00,VWS V14.01,2013-09-23 11:56:00,
2013-09-23 08:01:00,43.0,38.8,30.12,NW,315,0.9,0.9,85,0.00,,-RA,0.00,VWS V14.01,2013-09-23 12:01:00,
2013-09-23 08:06:00,43.3,39.1,30.12,NNE,22,0.0,0.0,85,0.00,,-RA,0.00,VWS V14.01,2013-09-23 12:06:00,
2013-09-23 08:11:00,43.5,39.3,30.12,NNW,338,1.3,1.3,85,0.00,,-RA,0.00,VWS V14.01,2013-09-23 12:11:00,
2013-09-23 08:16:00,43.7,39.5,30.12,North,0,0.0,0.0,85,0.00,,-RA,0.00,VWS V14.01,2013-09-23 12:16:00,
2013-09-23 08:21:00,44.1,39.8,30.12,NE,45,2.2,2.2,85,0.00,,-RA,0.00,VWS V14.01,2013-09-23 12:21:00,
2013-09-23 08:26:00,44.4,40.2,30.12,NNE,22,0.0,0.0,85,0.00,,-RA,0.00,VWS V14.01,2013-09-23 12:26:00,
2013-09-23 08:31:00,44.6,40.1,30.15,ENE,68,0.0,0.0,84,0.00,,-RA,0.00,VWS V14.01,2013-09-23 12:31:00,
2013-09-23 08:36:00,44.8,40.2,30.15,South,180,2.5,2.5,84,0.00,,-RA,0.00,VWS V14.01,2013-09-23 12:36:00,
2013-09-23 08:41:00,45.1,40.3,30.15,SSE,158,2.2,2.2,83,0.00,,-RA,0.00,VWS V14.01,2013-09-23 12:41:00,
2013-09-23 08:46:00,45.3,40.5,30.15,WNW,292,0.0,0.0,83,0.00,,-RA,0.00,VWS V14.01,2013-09-23 12:46:00,
2013-09-23 08:51:00,45.5,40.3,30.15,WNW,292,1.6,1.6,82,0.00,,-RA,0.00,VWS V14.01,2013-09-23 12:51:00,
2013-09-23 08:56:00,45.7,40.5,30.15,ENE,68,2.5,2.5,82,0.00,,-RA,0.00,VWS V14.01,2013-09-23 12:56:00,
2013-09-23 09:01:00,46.0,40.5,30.15,WNW,292,2.2,2.2,81,0.00,,-RA,0.00,VWS V14.01,2013-09-23 13:01:00,
2013-09-23 09:06:00,46.2,40.4,30.15,NE,45,2.0,2.0,80,0.00,,-RA,0.00,VWS V14.01,2013-09-23 13:06:00,
2013-09-23 09:11:00,46.4,39.9,30.15,South,180,2.2,2.2,78,0.00,,-RA,0.00,VWS V14.01,2013-09-23 13:11:00,
2013-09-23 09:16:00,46.8,39.9,30.12,SSW,202,0.0,0.0,77,0.00,,-RA,0.00,VWS V14.01,2013-09-23 13:16:00,
2013-09-23 09:21:00,46.9,39.8,30.12,South,180,5.6,5.6,76,0.00,,-RA,0.00,VWS V14.01,2013-09-23 13:21:00,
2013-09-23 09:26:00,47.1,40.0,30.12,SSW,202,1.6,1.6,76,0.00,,-RA,0.00,VWS V14.01,2013-09-23 13:26:00,
2013-09-23 09:31:00,47.5,40.0,30.15,SE,135,3.8,3.8,75,0.00,,-RA,0.00,VWS V14.01,2013-09-23 13:31:00,
2013-09-23 09:36:00,47.8,40.0,30.15,ESE,112,7.2,7.2,74,0.00,,-RA,0.00,VWS V14.01,2013-09-23 13:36:00,
2013-09-23 09:40:00,48.4,40.5,30.15,SSW,202,2.9,2.9,74,0.00,,-RA,0.00,VWS V14.01,2013-09-23 13:40:00,
2013-09-23 09:45:00,48.9,40.7,30.12,ESE,112,4.9,4.9,73,0.00,,-RA,0.00,VWS V14.01,2013-09-23 13:45:00,
2013-09-23 09:50:00,49.5,41.2,30.12,NNE,22,0.9,0.9,73,0.00,,-RA,0.00,VWS V14.01,2013-09-23 13:50:00,
2013-09-23 09:55:00,49.8,40.8,30.12,ESE,112,2.9,2.9,71,0.00,,-RA,0.00,VWS V14.01,2013-09-23 13:55:00,
2013-09-23 10:00:00,50.2,40.4,30.12,ENE,68,2.9,2.9,69,0.00,,-RA,0.00,VWS V14.01,2013-09-23 14:00:00,
2013-09-23 10:05:00,50.7,40.2,30.12,South,180,1.1,1.1,67,0.00,,-RA,0.00,VWS V14.01,2013-09-23 14:05:00,
2013-09-23 10:10:00,51.1,40.1,30.12,SSW,202,3.1,3.1,66,0.00,,-RA,0.00,VWS V14.01,2013-09-23 14:10:00,
2013-09-23 10:15:00,51.6,40.7,30.15,SSE,158,5.8,5.8,66,0.00,,-RA,0.00,VWS V14.01,2013-09-23 14:15:00,
2013-09-23 10:20:00,52.3,39.3,30.15,NW,315,4.3,4.3,61,0.00,,-RA,0.00,VWS V14.01,2013-09-23 14:20:00,
2013-09-23 10:25:00,52.7,38.8,30.15,SE,135,3.4,3.4,59,0.00,,-RA,0.00,VWS V14.01,2013-09-23 14:25:00,
2013-09-23 10:30:00,53.2,38.0,30.15,South,180,1.1,1.1,56,0.00,,-RA,0.00,VWS V14.01,2013-09-23 14:30:00,
2013-09-23 10:35:00,53.6,37.8,30.15,North,0,6.5,6.5,55,0.00,,-RA,0.00,VWS V14.01,2013-09-23 14:35:00,
2013-09-23 10:40:00,53.8,36.6,30.15,North,0,2.2,2.2,52,0.00,,-RA,0.00,VWS V14.01,2013-09-23 14:40:00,
2013-09-23 10:45:00,53.8,37.1,30.15,ESE,112,6.0,6.0,53,0.00,,-RA,0.00,VWS V14.01,2013-09-23 14:45:00,
2013-09-23 10:50:00,54.0,37.2,30.15,NE,45,1.1,1.1,53,0.00,,-RA,0.00,VWS V14.01,2013-09-23 14:50:00,
2013-09-23 10:55:00,54.1,37.4,30.15,North,0,4.0,4.0,53,0.00,,-RA,0.00,VWS V14.01,2013-09-23 14:55:00,
2013-09-23 11:00:00,54.7,37.9,30.15,NNW,338,5.6,5.6,53,0.00,,-RA,0.00,VWS V14.01,2013-09-23 15:00:00,
2013-09-23 11:05:00,54.9,38.1,30.15,SSE,158,2.0,2.0,53,0.00,,-RA,0.00,VWS V14.01,2013-09-23 15:05:00,
2013-09-23 11:10:00,55.2,37.9,30.15,SSE,158,4.0,4.0,52,0.00,,-RA,0.00,VWS V14.01,2013-09-23 15:10:00,
2013-09-23 11:15:00,55.8,38.4,30.12,SE,135,4.9,4.9,52,0.00,,-RA,0.00,VWS V14.01,2013-09-23 15:15:00,
2013-09-23 11:20:00,56.1,38.8,30.12,SSE,158,5.4,5.4,52,0.00,,-RA,0.00,VWS V14.01,2013-09-23 15:20:00,
2013-09-23 11:25:00,56.3,38.9,30.12,ESE,112,5.6,5.6,52,0.00,,-RA,0.00,VWS V14.01,2013-09-23 15:25:00,
2013-09-23 11:30:00,56.7,39.2,30.15,North,0,0.9,0.9,52,0.00,,-RA,0.00,VWS V14.01,2013-09-23 15:30:00,
2013-09-23 11:35:00,56.8,39.4,30.15,SSW,202,1.1,1.1,52,0.00,,-RA,0.00,VWS V14.01,2013-09-23 15:35:00,
2013-09-23 11:40:00,57.4,39.4,30.15,SSE,158,3.8,3.8,51,0.00,,-RA,0.00,VWS V14.01,2013-09-23 15:40:00,
2013-09-23 11:45:00,57.7,38.7,30.12,NNE,22,2.5,2.5,49,0.00,,-RA,0.00,VWS V14.01,2013-09-23 15:45:00,
2013-09-23 11:50:00,57.7,38.7,30.12,NNE,22,2.0,2.0,49,0.00,,-RA,0.00,VWS V14.01,2013-09-23 15:50:00,
2013-09-23 11:55:00,58.1,39.6,30.12,East,90,7.2,7.2,50,0.00,,-RA,0.00,VWS V14.01,2013-09-23 15:55:00,
2013-09-23 12:00:00,58.1,39.1,30.12,SE,135,3.6,3.6,49,0.00,,-RA,0.00,VWS V14.01,2013-09-23 16:00:00,
2013-09-23 12:05:00,58.1,39.1,30.12,NNE,22,3.1,3.1,49,0.00,,-RA,0.00,VWS V14.01,2013-09-23 16:05:00,
2013-09-23 12:10:00,58.8,39.7,30.12,ESE,112,4.9,4.9,49,0.00,,-RA,0.00,VWS V14.01,2013-09-23 16:10:00,
2013-09-23 12:15:00,59.0,39.4,30.12,WNW,292,1.6,1.6,48,0.00,,-RA,0.00,VWS V14.01,2013-09-23 16:15:00,
2013-09-23 12:20:00,59.4,39.2,30.12,ESE,112,5.6,5.6,47,0.00,,-RA,0.00,VWS V14.01,2013-09-23 16:20:00,
2013-09-23 12:25:00,59.4,39.2,30.12,NE,45,2.0,2.0,47,0.00,,-RA,0.00,VWS V14.01,2013-09-23 16:25:00,
2013-09-23 12:30:00,59.5,39.3,30.12,SSE,158,1.3,1.3,47,0.00,,-RA,0.00,VWS V14.01,2013-09-23 16:30:00,
2013-09-23 12:35:00,59.7,39.5,30.12,North,0,1.3,1.3,47,0.00,,-RA,0.00,VWS V14.01,2013-09-23 16:35:00,
2013-09-23 12:40:00,59.9,39.1,30.12,ESE,112,3.4,3.4,46,0.00,,-RA,0.00,VWS V14.01,2013-09-23 16:40:00,
2013-09-23 12:45:00,60.3,39.4,30.12,South,180,3.1,3.1,46,0.00,,-RA,0.00,VWS V14.01,2013-09-23 16:45:00,
2013-09-23 12:50:00,60.4,39.6,30.12,ESE,112,2.9,2.9,46,0.00,,-RA,0.00,VWS V14.01,2013-09-23 16:50:00,
2013-09-23 12:55:00,60.6,39.2,30.12,NE,45,2.9,2.9,45,0.00,,-RA,0.00,VWS V14.01,2013-09-23 16:55:00,
2013-09-23 13:00:00,61.3,39.3,30.12,ESE,112,4.3,4.3,44,0.00,,-RA,0.00,VWS V14.01,2013-09-23 17:00:00,
2013-09-23 13:05:00,61.5,40.0,30.12,South,180,0.9,0.9,45,0.00,,-RA,0.00,VWS V14.01,2013-09-23 17:05:00,
2013-09-23 13:10:00,61.7,39.6,30.12,SSE,158,3.6,3.6,44,0.00,,-RA,0.00,VWS V14.01,2013-09-23 17:10:00,
2013-09-23 13:15:00,61.5,39.4,30.12,South,180,2.5,2.5,44,0.00,,-RA,0.00,VWS V14.01,2013-09-23 17:15:00,
2013-09-23 13:20:00,61.5,38.8,30.12,NE,45,3.6,3.6,43,0.00,,-RA,0.00,VWS V14.01,2013-09-23 17:20:00,
2013-09-23 13:25:00,61.5,39.4,30.12,ESE,112,2.5,2.5,44,0.00,,-RA,0.00,VWS V14.01,2013-09-23 17:25:00,
2013-09-23 13:30:00,61.5,39.4,30.12,ENE,68,2.0,2.0,44,0.00,,-RA,0.00,VWS V14.01,2013-09-23 17:30:00,
2013-09-23 13:35:00,61.3,39.3,30.12,ENE,68,2.5,2.5,44,0.00,,-RA,0.00,VWS V14.01,2013-09-23 17:35:00,
2013-09-23 13:40:00,61.2,37.9,30.12,WNW,292,1.3,1.3,42,0.00,,-RA,0.00,VWS V14.01,2013-09-23 17:40:00,
2013-09-23 13:45:00,61.0,38.3,30.12,NE,45,2.5,2.5,43,0.00,,-RA,0.00,VWS V14.01,2013-09-23 17:45:00,
2013-09-23 13:50:00,61.0,37.8,30.12,NE,45,5.6,5.6,42,0.00,,-RA,0.00,VWS V14.01,2013-09-23 17:50:00,
2013-09-23 13:55:00,61.0,38.9,30.12,South,180,1.3,1.3,44,0.00,,-RA,0.00,VWS V14.01,2013-09-23 17:55:00,
2013-09-23 14:00:00,61.2,37.9,30.12,ESE,112,3.8,3.8,42,0.00,,-RA,0.00,VWS V14.01,2013-09-23 18:00:00,
2013-09-23 14:05:00,60.8,38.2,30.12,SE,135,3.8,3.8,43,0.00,,-RA,0.00,VWS V14.01,2013-09-23 18:05:00,
2013-09-23 14:10:00,60.4,38.4,30.12,ESE,112,3.1,3.1,44,0.00,,-RA,0.00,VWS V14.01,2013-09-23 18:10:00,
2013-09-23 14:15:00,60.8,37.6,30.09,SE,135,1.6,1.6,42,0.00,,-RA,0.00,VWS V14.01,2013-09-23 18:15:00,
2013-09-23 14:20:00,60.6,38.6,30.09,ESE,112,1.6,1.6,44,0.00,,-RA,0.00,VWS V14.01,2013-09-23 18:20:00,
2013-09-23 14:25:00,60.6,38.6,30.09,South,180,3.1,3.1,44,0.00,,-RA,0.00,VWS V14.01,2013-09-23 18:25:00,
2013-09-23 14:30:00,61.0,38.3,30.09,East,90,2.0,2.0,43,0.00,,-RA,0.00,VWS V14.01,2013-09-23 18:30:00,
2013-09-23 14:35:00,61.0,38.9,30.09,SSE,158,4.0,4.0,44,0.00,,-RA,0.00,VWS V14.01,2013-09-23 18:35:00,
2013-09-23 14:40:00,61.3,39.3,30.09,North,0,2.0,2.0,44,0.00,,-RA,0.00,VWS V14.01,2013-09-23 18:40:00,
2013-09-23 14:45:00,61.5,38.8,30.09,SW,225,1.3,1.3,43,0.00,,-RA,0.00,VWS V14.01,2013-09-23 18:45:00,
2013-09-23 14:50:00,61.3,39.3,30.09,East,90,4.3,4.3,44,0.00,,-RA,0.00,VWS V14.01,2013-09-23 18:50:00,
2013-09-23 14:55:00,61.3,39.3,30.09,ESE,112,3.6,3.6,44,0.00,,-RA,0.00,VWS V14.01,2013-09-23 18:55:00,
2013-09-23 15:00:00,61.3,39.3,30.09,NNE,22,2.9,2.9,44,0.00,,-RA,0.00,VWS V14.01,2013-09-23 19:00:00,
2013-09-23 15:05:00,61.3,38.7,30.09,SSW,202,2.7,2.7,43,0.00,,-RA,0.00,VWS V14.01,2013-09-23 19:05:00,
2013-09-23 15:10:00,61.2,38.5,30.09,NNE,22,3.4,3.4,43,0.00,,-RA,0.00,VWS V14.01,2013-09-23 19:10:00,
2013-09-23 15:15:00,61.2,38.5,30.09,NNE,22,1.3,1.3,43,0.00,,-RA,0.00,VWS V14.01,2013-09-23 19:15:00,
2013-09-23 15:20:00,61.0,38.9,30.09,East,90,2.0,2.0,44,0.00,,-RA,0.00,VWS V14.01,2013-09-23 19:20:00,
2013-09-23 15:25:00,61.2,38.5,30.09,SSE,158,2.9,2.9,43,0.00,,-RA,0.00,VWS V14.01,2013-09-23 19:25:00,
2013-09-23 15:30:00,61.2,39.1,30.09,East,90,1.3,1.3,44,0.00,,-RA,0.00,VWS V14.01,2013-09-23 19:30:00,
2013-09-23 15:35:00,61.2,39.1,30.09,SSE,158,5.8,5.8,44,0.00,,-RA,0.00,VWS V14.01,2013-09-23 19:35:00,
2013-09-23 15:40:00,61.5,39.4,30.09,SSW,202,1.3,1.3,44,0.00,,-RA,0.00,VWS V14.01,2013-09-23 19:40:00,
2013-09-23 15:45:00,61.5,39.4,30.09,ESE,112,0.9,0.9,44,0.00,,-RA,0.00,VWS V14.01,2013-09-23 19:45:00,
2013-09-23 15:50:00,61.7,39.6,30.09,SSE,158,1.3,1.3,44,0.00,,-RA,0.00,VWS V14.01,2013-09-23 19:50:00,
2013-09-23 15:55:00,61.7,39.0,30.09,NNE,22,2.0,2.0,43,0.00,,-RA,0.00,VWS V14.01,2013-09-23 19:55:00,
2013-09-23 16:00:00,61.7,39.6,30.09,North,0,1.3,1.3,44,0.00,,-RA,0.00,VWS V14.01,2013-09-23 20:00:00,